SCP
1 0 0 0 0 0 0 0 0 0 0 0 0 0 0 0 0 0 0 0 0 1 1 1 1 1 1 1 1 1 1 1 1 1 1 1 1 1 0 0 0 0 0 0 1 1 1 1 1
1 0 0 0 0 0 0 0 0 0 0 0 0 0 0 0 0 0 0 0 0 1 1 1 1 1 1 0 1 1 1 1 1 1 1 1 1 1 0 0 0 0 0 0 1 1 1 1 1
0 0 0 0 0 0 0 0 0 0 0 0 0 0 0 0 0 0 0 0 1 0 0 1 1 1 1 0 1 1 1 1 1 1 1 1 1 1 1 0 0 0 0 0 0 0 1 1 1
0 0 0 0 0 0 0 0 0 0 0 0 0 0 0 0 0 0 0 1 1 0 0 0 1 1 1 1 1 1 1 1 1 1 1 1 1 1 1 1 0 0 0 0 0 0 0 1 1
0 0 0 0 0 0 0 0 0 0 0 0 0 0 0 0 0 0 0 1 1 0 0 0 0 0 0 1 1 1 1 1 1 1 1 1 1 1 1 1 0 0 0 0 0 0 0 0 1
0 0 0 0 0 0 0 0 0 0 0 0 0 0 0 0 0 0 1 1 1 0 0 0 0 0 0 0 1 1 1 1 1 1 1 1 1 1 1 1 1 1 1 1 1 0 0 0 0
0 0 0 0 0 0 0 0 0 0 0 0 0 0 0 0 0 1 1 1 1 0 0 0 0 0 0 0 0 1 1 0 1 1 1 1 1 1 1 1 1 1 1 1 1 1 0 0 0
0 0 0 0 0 0 0 0 0 0 0 0 0 0 0 0 0 1 1 1 0 0 0 0 0 0 0 0 1 1 0 0 0 1 1 1 1 1 1 0 1 1 1 1 1 1 1 1 1
0 0 0 0 0 0 0 0 0 0 0 0 0 0 0 0 0 1 1 1 0 0 0 0 0 0 0 0 1 1 1 0 1 1 1 1 1 0 0 0 1 1 1 1 1 1 1 1 0
0 0 0 0 0 0 0 0 0 0 0 0 0 0 0 0 1 1 1 1 0 0 0 0 0 0 0 1 1 1 1 0 0 1 1 1 0 0 0 0 0 1 1 1 1 0 0 0 0
0 0 0 0 0 0 0 0 0 0 0 0 0 0 1 1 1 1 1 0 0 0 0 0 0 0 1 1 1 1 1 1 0 0 0 0 0 0 0 0 0 0 0 0 0 0 0 0 0
0 0 0 0 0 0 0 0 0 0 0 0 0 1 1 1 1 1 1 0 0 0 0 1 1 1 1 1 1 1 1 1 0 0 0 0 0 0 0 0 0 0 0 0 0 0 0 0 0
0 0 1 1 0 0 0 0 0 0 0 0 0 1 1 1 1 1 1 0 0 1 1 1 1 1 1 1 1 1 1 1 0 0 0 0 0 0 0 0 0 0 0 0 0 0 0 0 0
0 1 1 1 0 0 0 0 0 0 0 0 0 0 1 1 1 1 1 0 0 1 1 1 1 1 1 0 0 0 0 0 0 0 0 0 0 0 0 0 0 0 0 0 0 0 0 0 0
1 1 1 1 0 0 0 0 0 0 0 0 0 0 0 0 1 1 1 1 1 1 1 1 1 1 1 1 0 0 0 0 0 0 0 0 0 0 0 0 0 0 0 0 0 0 0 0 0
1 1 1 1 1 0 0 0 0 0 0 0 0 0 0 0 0 1 1 1 1 1 1 1 1 2 1 1 1 0 0 0 0 0 0 0 0 0 0 0 0 0 0 0 0 0 0 0 0
1 1 1 1 0 0 0 0 0 0 0 0 0 0 0 0 0 0 1 1 1 1 1 1 1 2 1 1 1 0 0 0 0 0 0 0 0 0 0 0 0 0 0 0 0 0 0 0 0
0 1 1 1 0 0 0 0 0 0 0 0 0 0 0 0 0 0 1 1 1 1 1 1 1 2 2 1 1 0 0 0 0 0 0 0 0 0 0 0 0 0 0 0 0 0 0 0 0
0 1 1 1 1 0 0 0 0 0 0 0 0 0 0 0 0 0 1 1 1 1 1 1 1 1 2 1 1 1 0 0 0 0 0 0 0 0 0 0 0 0 0 0 0 0 0 0 0
0 0 1 1 1 0 0 0 0 0 0 0 0 0 0 0 0 0 1 1 1 0 0 0 0 1 2 2 1 1 0 0 0 0 0 0 0 0 0 0 0 0 0 0 0 0 0 0 0
0 0 0 1 0 0 0 0 0 0 0 0 0 0 0 0 0 0 1 1 1 0 0 0 0 1 2 2 2 1 1 0 0 0 0 0 0 0 0 0 0 0 0 0 0 0 0 0 0
0 0 0 0 0 0 0 0 0 0 0 0 0 0 0 0 0 0 1 1 1 0 0 0 0 1 1 2 2 1 1 0 0 0 0 0 0 0 0 0 0 0 0 0 0 0 0 0 0
0 0 0 0 0 0 0 0 0 0 0 0 0 0 0 0 0 0 0 1 1 1 0 0 0 0 1 2 2 2 1 1 0 0 0 0 0 0 0 0 0 0 0 0 0 0 0 0 0
0 0 0 0 0 0 0 0 0 0 0 0 0 0 0 0 0 0 0 1 1 1 0 0 0 0 1 2 2 2 1 1 0 0 0 0 0 0 0 0 0 0 0 0 0 0 0 0 0
0 0 0 0 0 0 0 0 0 0 0 0 0 0 0 0 0 0 0 0 0 1 0 0 0 0 1 2 2 2 2 1 1 0 0 0 0 0 0 0 0 0 0 0 0 0 0 0 0
0 0 0 0 0 0 0 0 0 0 0 0 0 0 0 0 0 0 0 0 0 1 1 0 0 0 1 2 2 2 2 1 1 0 0 0 0 0 0 0 0 0 0 0 0 0 0 0 0
0 0 0 0 0 0 0 0 0 0 0 0 0 0 0 0 0 0 0 0 0 1 1 1 1 0 1 1 2 2 2 2 1 1 0 0 0 0 0 0 0 0 0 0 0 0 0 0 0
0 0 0 0 0 0 0 0 0 0 0 0 0 0 0 0 0 0 0 0 0 0 1 1 1 0 1 1 2 2 2 2 1 1 0 0 0 0 0 0 0 0 0 0 0 0 0 0 0
0 0 0 0 0 0 0 0 0 0 0 0 0 0 0 0 0 0 0 0 0 0 1 1 1 0 0 1 2 3 3 2 1 1 0 0 0 0 0 0 0 0 0 0 0 0 0 0 0
0 0 0 0 0 0 0 0 0 0 0 0 0 0 0 0 0 0 0 0 0 0 0 1 1 1 0 1 2 3 3 2 2 1 0 0 0 0 0 0 0 0 0 0 0 0 0 0 0
Wind_Speed
3 2 3 4 7 6 3 2 1 1 2 2 3 5 6 4 2 2 1 1 2 2 2 3 5 5 5 5 6 7 8 8 8 8 8 8 8 8 8 8 8 7 7 8 8 8 8 8 7
1 2 4 5 6 4 2 2 1 0 3 3 4 5 5 4 2 3 1 1 2 3 2 2 4 5 5 6 6 7 7 7 7 7 7 7 7 7 7 7 7 7 7 8 8 7 7 7 8
1 3 4 5 4 3 2 1 1 3 3 2 4 4 3 2 2 2 2 3 3 3 2 2 4 5 6 6 6 7 7 6 7 7 7 7 7 7 7 7 7 7 7 7 7 7 7 8 8
3 5 5 6 3 1 2 1 2 3 3 4 4 4 2 1 2 3 3 4 4 2 2 2 4 5 5 5 5 6 6 6 6 6 6 6 6 6 6 6 6 7 7 7 7 7 7 8 9
4 5 6 4 2 2 1 1 1 2 2 3 3 4 2 3 2 4 5 4 4 2 1 1 4 4 5 5 5 5 5 5 6 6 6 6 6 6 6 6 6 7 7 8 7 7 8 8 9
5 5 5 2 1 2 1 0 2 3 2 2 3 3 0 1 3 3 4 3 3 3 1 1 2 3 3 4 4 4 4 4 5 5 5 6 6 6 6 6 6 7 7 8 8 8 8 9 9
5 5 4 3 1 1 0 1 3 3 3 2 4 4 0 1 2 3 3 3 2 2 2 1 1 1 3 3 3 3 3 4 4 5 5 5 5 6 6 6 6 7 7 8 8 9 9 10 10
4 5 3 1 2 1 0 1 1 3 2 2 4 5 4 3 3 4 3 3 2 2 1 1 1 1 1 1 2 3 3 4 4 5 5 6 6 6 6 6 6 7 8 9 9 10 10 11 11
4 6 2 3 4 2 1 2 1 2 4 2 1 3 3 6 6 5 3 1 0 1 1 1 1 1 1 1 2 3 3 3 5 4 5 6 4 4 4 5 6 7 8 9 10 11 11 11 11
4 4 3 3 4 3 2 2 3 3 3 1 2 2 5 7 7 5 4 3 2 2 2 1 1 0 0 1 2 2 2 2 3 2 3 3 3 3 4 5 8 8 10 11 11 12 11 8 5
3 4 2 1 2 2 2 1 2 5 1 4 5 6 6 6 5 5 4 4 4 3 2 2 2 1 1 1 1 1 1 1 2 2 3 3 3 3 3 3 4 5 7 5 7 7 5 5 4
2 0 2 1 2 2 2 2 2 2 3 3 6 8 7 7 6 6 5 4 3 3 2 2 2 1 1 1 1 1 1 1 1 1 2 2 2 2 2 2 3 3 3 4 4 4 5 5 5
2 0 1 1 3 2 3 2 2 1 1 3 5 6 7 7 6 5 4 4 3 3 3 3 2 2 1 1 1 1 1 1 1 1 2 2 2 2 2 2 2 3 3 3 4 4 5 5 6
0 1 2 2 1 1 3 1 2 2 0 4 5 5 5 6 5 4 3 4 4 4 3 3 3 3 2 2 1 1 1 1 1 1 2 3 2 2 2 2 3 2 3 3 3 4 5 4 5
2 3 4 2 1 1 3 3 1 2 2 3 3 4 4 4 4 4 4 4 5 4 3 4 4 3 3 2 2 1 1 2 1 1 2 3 3 3 3 2 2 2 3 4 4 5 4 5 5
3 3 2 3 1 1 3 2 3 1 3 2 2 2 2 3 3 4 4 4 4 3 3 4 4 4 3 2 2 1 1 2 1 1 1 2 3 3 3 3 2 3 3 3 4 4 4 4 4
4 1 1 3 1 1 3 3 3 0 3 2 2 2 3 3 3 3 3 4 4 4 4 3 3 4 3 2 2 2 2 2 1 1 1 2 3 3 3 3 2 3 3 3 4 3 3 4 4
2 1 1 2 2 1 1 2 3 1 2 3 3 2 2 3 5 4 4 4 3 3 3 4 4 3 3 2 2 2 2 1 1 1 2 3 2 3 3 3 3 3 4 3 4 4 4 4 4
3 2 1 3 1 1 2 3 4 2 1 2 3 3 3 5 4 2 3 3 3 2 3 4 4 3 3 2 2 2 1 1 1 1 2 3 3 3 4 3 3 3 3 4 4 4 5 3 3
2 2 1 2 1 1 1 3 3 2 3 4 4 4 4 4 2 1 2 3 4 4 4 4 4 4 4 3 3 2 2 1 1 1 2 2 2 3 3 4 3 3 4 4 4 4 3 2 2
2 3 3 2 2 2 1 4 3 3 2 2 2 3 4 5 4 3 3 4 4 4 5 5 4 4 4 4 3 3 3 2 2 1 1 1 2 2 3 4 4 4 3 4 3 4 4 2 1
3 3 4 2 1 2 1 3 5 3 3 3 3 3 3 4 4 3 3 3 4 5 4 4 4 4 4 4 5 5 3 2 2 2 1 1 2 3 3 3 4 4 3 4 3 3 3 3 2
3 0 1 1 2 1 2 1 7 2 3 5 4 4 4 4 4 4 4 4 4 4 4 3 3 3 3 4 5 5 3 2 2 2 2 2 2 2 3 3 3 3 3 3 3 3 3 2 3
2 4 5 4 4 1 3 3 6 3 4 4 4 4 3 3 3 3 3 2 2 1 2 3 3 3 3 4 5 5 5 4 4 3 3 1 1 1 2 3 3 3 3 3 3 3 3 2 2
4 5 3 4 3 4 2 2 6 5 4 4 4 3 3 2 2 2 2 2 2 2 3 3 4 3 3 4 4 5 5 5 5 4 4 3 2 1 2 3 3 3 3 3 3 3 3 3 3
1 5 5 3 3 4 2 4 6 4 3 2 2 1 1 1 1 2 2 3 3 4 4 4 4 4 4 5 4 4 4 4 3 4 4 4 3 3 3 3 3 3 3 3 3 2 2 2 2
3 2 3 5 1 1 4 5 6 2 3 3 2 2 1 2 2 2 2 2 3 4 5 5 5 4 5 5 4 4 4 4 4 3 3 3 3 3 4 4 4 3 3 4 4 2 2 2 2
4 5 4 4 3 2 4 4 4 4 3 3 3 2 3 2 2 2 2 2 3 4 4 4 4 5 5 5 5 4 4 4 4 3 3 3 3 3 4 4 4 3 3 4 3 3 3 3 2
2 3 4 3 3 4 2 6 4 4 3 3 3 3 3 2 2 2 2 2 2 2 3 4 4 3 3 4 4 4 4 4 4 4 4 4 3 3 4 4 4 4 3 4 4 3 3 4 3
2 3 5 3 2 3 3 7 3 2 2 2 3 4 3 2 3 2 2 1 1 1 2 3 3 3 3 4 4 5 4 4 4 4 3 4 4 3 4 4 4 4 4 4 4 4 4 4 4
Wind_Direction
1 72 86 60 53 52 48 342 324 17 50 43 65 80 88 77 88 125 264 112 125 117 115 124 118 114 107 103 104 103 102 101 99 98 96 97 97 95 97 99 97 97 95 91 88 85 83 84 84
71 92 58 59 76 70 4 324 29 88 140 140 74 71 74 65 69 110 125 166 129 120 114 124 125 119 114 108 110 107 104 102 101 98 95 94 95 94 93 96 94 94 93 90 89 86 83 82 86
100 63 76 68 85 133 159 242 148 79 92 94 72 58 80 92 114 154 193 150 123 115 112 123 125 121 116 112 109 106 104 102 102 101 96 92 91 89 88 88 90 92 92 90 90 87 83 84 88
78 47 55 68 76 204 188 195 151 113 61 52 89 69 57 34 161 164 139 129 123 114 104 133 131 125 123 121 117 110 105 103 102 100 95 91 90 90 88 90 91 91 91 89 87 87 86 87 89
63 72 62 56 37 350 312 215 126 96 68 52 87 93 44 351 93 124 130 132 130 118 94 123 134 129 122 119 116 114 112 106 102 99 94 93 91 88 84 85 87 88 90 88 85 85 89 89 90
58 66 82 91 19 344 338 27 115 93 96 89 98 104 70 30 118 139 135 136 131 128 106 66 124 118 114 112 112 108 112 110 105 99 96 94 89 85 78 80 87 90 91 88 84 83 90 91 90
95 88 110 134 117 347 229 98 120 117 115 148 133 114 181 236 179 142 124 116 106 108 98 47 44 76 95 100 102 101 101 100 103 98 95 88 82 81 79 78 86 90 90 88 84 84 87 88 87
113 97 90 120 142 242 206 100 110 121 131 126 127 140 191 209 145 114 100 94 95 108 117 96 61 58 56 63 89 90 90 86 88 86 84 74 68 69 69 70 81 90 90 87 86 85 87 87 84
88 79 131 185 174 217 166 109 66 72 104 94 113 169 179 136 122 114 100 81 122 171 168 137 101 68 66 70 83 68 70 68 76 77 75 66 47 44 51 66 76 82 82 81 83 86 85 81 80
83 113 200 199 184 181 147 131 140 96 83 80 70 80 112 125 135 145 161 179 196 210 206 169 175 183 87 87 72 51 47 50 64 64 60 56 48 41 53 57 69 73 74 72 76 81 76 71 63
101 150 190 193 173 142 123 99 104 123 166 201 181 165 145 145 155 171 187 194 202 202 201 178 186 190 140 101 90 68 53 54 68 73 72 69 57 45 49 51 50 53 62 61 67 70 65 67 67
93 105 152 155 139 126 142 135 99 152 223 206 177 162 156 164 181 192 198 202 193 180 203 193 179 179 168 115 98 90 83 79 81 83 94 89 72 61 60 61 57 56 60 71 71 75 72 71 69
78 41 69 97 85 107 101 104 129 278 280 113 133 148 167 180 193 202 198 193 181 184 206 202 173 178 166 130 133 110 108 114 118 103 102 112 105 87 72 71 69 67 70 76 79 81 78 75 70
151 81 42 43 71 98 112 33 73 279 118 118 138 165 184 192 192 186 187 191 190 192 203 192 178 183 167 158 151 144 141 130 113 117 125 121 115 104 89 79 77 71 75 79 86 89 86 79 74
80 58 16 4 18 127 103 16 302 254 141 144 172 185 194 203 190 196 199 197 197 197 192 184 179 169 168 171 169 152 154 129 120 125 125 124 120 117 114 105 94 89 90 92 90 83 80 81 74
61 62 7 312 15 80 117 261 289 228 137 174 210 209 209 221 208 213 206 197 192 185 184 188 174 161 172 170 158 140 127 117 120 119 115 121 126 128 122 117 107 103 95 96 98 91 84 76 73
36 67 257 307 338 93 132 230 294 165 150 196 225 228 228 241 241 227 210 196 188 184 180 179 163 159 169 158 132 116 107 106 116 112 116 124 124 129 126 119 115 112 100 96 106 89 95 93 84
213 209 246 262 295 96 158 252 290 279 176 215 232 239 239 240 241 230 210 194 182 176 173 170 162 156 144 121 96 78 78 79 95 120 136 133 130 131 126 119 118 115 108 99 103 100 87 93 94
167 168 231 259 262 135 210 259 282 283 234 249 248 239 238 243 247 224 205 187 168 166 170 171 164 160 142 131 133 131 142 161 114 116 119 126 133 135 133 131 121 118 119 126 123 111 100 90 98
155 162 254 296 317 148 225 280 284 264 231 231 232 233 232 248 272 233 200 183 189 193 186 180 177 172 168 163 157 144 136 140 135 105 98 116 131 139 141 135 131 126 122 124 128 124 114 105 94
191 190 208 226 9 33 54 324 305 297 291 291 279 246 228 223 225 219 207 204 200 200 199 195 191 180 173 158 127 99 77 65 63 74 104 117 131 132 131 139 135 134 135 146 149 140 134 137 86
239 225 196 183 121 301 52 288 292 292 317 313 303 299 257 238 222 209 205 210 212 214 203 194 188 182 172 156 151 151 150 158 185 176 155 126 119 121 123 129 136 140 142 148 155 142 138 138 144
215 54 131 145 145 356 353 233 290 327 316 298 284 278 274 246 226 216 212 212 215 205 194 186 178 177 169 166 165 160 157 162 144 128 125 114 98 105 121 129 136 143 148 150 143 135 141 146 153
125 70 56 50 73 306 250 193 281 262 253 281 282 283 278 264 246 235 228 218 206 178 174 174 172 180 169 165 168 169 166 158 146 145 145 134 108 101 124 136 144 150 151 156 157 152 152 153 148
66 81 35 6 13 261 258 199 253 256 250 248 257 264 270 265 249 246 233 227 213 187 182 177 175 184 175 169 175 180 178 170 173 170 164 160 161 170 182 162 159 160 161 157 151 152 157 160 162
142 131 152 197 229 279 307 238 257 274 282 286 283 270 306 281 253 240 230 224 218 207 192 180 181 189 182 177 183 182 176 171 177 174 170 179 187 194 186 174 172 170 161 156 154 150 162 155 164
120 136 160 134 171 274 280 289 304 332 355 1 2 3 310 270 258 252 244 250 229 213 203 194 186 188 192 188 180 179 178 175 179 178 175 181 185 184 179 175 174 170 164 162 156 155 162 146 153
122 136 94 112 151 258 293 284 268 297 310 324 326 303 293 304 304 299 271 261 253 223 209 196 190 191 195 188 186 183 183 183 178 171 178 180 183 176 166 169 168 164 165 164 157 157 157 143 144
70 80 93 111 149 161 259 272 240 247 259 262 268 279 278 284 289 293 287 282 277 226 192 191 194 185 186 190 187 179 180 180 172 178 188 184 181 173 172 173 166 166 169 166 161 166 158 151 148
147 148 137 149 217 178 197 265 285 278 287 289 293 296 303 300 291 288 291 312 321 272 208 195 193 190 190 185 181 183 177 171 174 183 184 172 174 173 172 169 165 172 171 170 169 171 164 162 163